When you browse on this site, cookies collect data to enhance your experience and personalize the content and advertising you see.
Visit our Privacy Policy to learn more. By continuing to use the site, you agree to this use of cookies and data.
  • In Hungary
  • List of Countries
  • For 7 days
  • Water Temperature
  • Satellite Maps
  • Weather Map
  • News
  • Weather Widgets
  • user-avatar
    Login

    Hourly Weather Holmatka

    Today, 24 May, Friday

    Time Temperature Precipitation Wind Pressure Humidity
    00:00 +12°C° 0 mm 3 mps 750 mmHg 89%
    01:00 +11°C° 0 mm 3 mps 750 mmHg 90%
    02:00 +10°C° 0 mm 2 mps 751 mmHg 91%
    03:00 +10°C° 0 mm 2 mps 751 mmHg 91%
    04:00 +10°C° 0 mm 2 mps 751 mmHg 92%
    05:00 +10°C° 0 mm 2 mps 751 mmHg 92%
    06:00 +12°C° 0 mm 2 mps 751 mmHg 88%
    07:00 +14°C° 0 mm 2 mps 751 mmHg 83%
    08:00 +16°C° 0 mm 2 mps 751 mmHg 79%
    09:00 +17°C° 0 mm 2 mps 751 mmHg 75%
    10:00 +19°C° 0 mm 2 mps 751 mmHg 70%
    11:00 +21°C° 0 mm 2 mps 751 mmHg 66%
    12:00 +21°C° 0.4 mm 2 mps 751 mmHg 68%
    13:00 +21°C° 0.4 mm 2 mps 750 mmHg 69%
    14:00 +21°C° 0.4 mm 2 mps 750 mmHg 71%
    15:00 +21°C° 2.1 mm 2 mps 750 mmHg 75%
    16:00 +20°C° 2.1 mm 2 mps 750 mmHg 80%
    17:00 +20°C° 2.1 mm 3 mps 749 mmHg 84%
    18:00 +19°C° 2.4 mm 2 mps 749 mmHg 86%
    19:00 +18°C° 2.4 mm 2 mps 749 mmHg 89%
    20:00 +17°C° 2.4 mm 2 mps 749 mmHg 92%
    21:00 +16°C° 0.2 mm 2 mps 749 mmHg 92%
    22:00 +15°C° 0.2 mm 2 mps 749 mmHg 93%
    23:00 +14°C° 0.2 mm 2 mps 749 mmHg 94%

    Tomorrow, 25 May, Saturday

    Time Temperature Precipitation Wind Pressure Humidity
    00:00 +13°C° 0 mm 2 mps 749 mmHg 93%
    01:00 +12°C° 0 mm 2 mps 749 mmHg 92%
    02:00 +10°C° 0 mm 2 mps 749 mmHg 91%
    03:00 +11°C° 0 mm 1 mps 748 mmHg 92%
    04:00 +11°C° 0 mm 1 mps 748 mmHg 93%
    05:00 +11°C° 0 mm 1 mps 748 mmHg 93%
    06:00 +13°C° 0 mm 1 mps 748 mmHg 88%
    07:00 +14°C° 0 mm 1 mps 748 mmHg 82%
    08:00 +16°C° 0 mm 1 mps 748 mmHg 77%
    09:00 +18°C° 0 mm 1 mps 747 mmHg 69%
    10:00 +19°C° 0 mm 2 mps 747 mmHg 62%
    11:00 +20°C° 0 mm 3 mps 746 mmHg 54%
    12:00 +21°C° 0 mm 3 mps 746 mmHg 53%
    13:00 +21°C° 0 mm 4 mps 746 mmHg 51%
    14:00 +22°C° 0 mm 4 mps 745 mmHg 50%
    15:00 +20°C° 0.7 mm 4 mps 745 mmHg 60%
    16:00 +19°C° 0.7 mm 5 mps 745 mmHg 71%
    17:00 +16°C° 0.7 mm 5 mps 745 mmHg 81%
    18:00 +15°C° 0.1 mm 4 mps 745 mmHg 82%
    19:00 +14°C° 0.1 mm 3 mps 745 mmHg 83%
    20:00 +13°C° 0.1 mm 3 mps 745 mmHg 83%
    21:00 +11°C° 0 mm 3 mps 745 mmHg 85%
    22:00 +10°C° 0 mm 3 mps 746 mmHg 87%
    23:00 +9°C° 0 mm 3 mps 746 mmHg 88%

    Day after tomorrow, 26 May, Sunday

    Time Temperature Precipitation Wind Pressure Humidity
    00:00 +8°C° 0 mm 3 mps 746 mmHg 89%
    01:00 +8°C° 0 mm 3 mps 746 mmHg 90%
    02:00 +8°C° 0 mm 3 mps 746 mmHg 91%
    03:00 +8°C° 0 mm 3 mps 746 mmHg 89%
    04:00 +9°C° 0 mm 3 mps 746 mmHg 88%
    05:00 +9°C° 0 mm 3 mps 747 mmHg 87%
    06:00 +10°C° 0 mm 3 mps 746 mmHg 82%
    07:00 +11°C° 0 mm 3 mps 746 mmHg 78%
    08:00 +13°C° 0 mm 3 mps 746 mmHg 74%
    09:00 +14°C° 0 mm 4 mps 746 mmHg 70%
    10:00 +15°C° 0 mm 4 mps 746 mmHg 66%
    11:00 +17°C° 0 mm 5 mps 746 mmHg 62%
    12:00 +17°C° 0.1 mm 6 mps 745 mmHg 60%
    13:00 +19°C° 0.1 mm 6 mps 745 mmHg 57%
    14:00 +18°C° 0.1 mm 7 mps 745 mmHg 55%
    15:00 +17°C° 0 mm 6 mps 745 mmHg 58%
    16:00 +16°C° 0 mm 6 mps 745 mmHg 60%
    17:00 +15°C° 0 mm 5 mps 745 mmHg 63%
    18:00 +13°C° 0.4 mm 5 mps 744 mmHg 73%
    19:00 +12°C° 0.4 mm 4 mps 744 mmHg 82%
    20:00 +10°C° 0.4 mm 4 mps 744 mmHg 92%
    21:00 +8°C° 0.2 mm 4 mps 744 mmHg 92%
    22:00 +8°C° 0.2 mm 5 mps 745 mmHg 92%
    23:00 +8°C° 0.2 mm 5 mps 745 mmHg 92%

    27 May, Monday

    Time Temperature Precipitation Wind Pressure Humidity
    00:00 +7°C° 0 mm 5 mps 745 mmHg 92%
    01:00 +6°C° 0 mm 5 mps 745 mmHg 92%
    02:00 +5°C° 0 mm 4 mps 745 mmHg 93%
    03:00 +5°C° 0 mm 5 mps 745 mmHg 93%
    04:00 +5°C° 0 mm 5 mps 745 mmHg 93%
    05:00 +5°C° 0 mm 5 mps 746 mmHg 93%
    06:00 +7°C° 0 mm 5 mps 746 mmHg 87%
    07:00 +8°C° 0 mm 6 mps 746 mmHg 81%
    08:00 +10°C° 0 mm 6 mps 746 mmHg 75%
    09:00 +10°C° 0 mm 6 mps 747 mmHg 73%
    10:00 +11°C° 0 mm 6 mps 747 mmHg 70%
    11:00 +12°C° 0 mm 5 mps 747 mmHg 68%
    12:00 +13°C° 0 mm 5 mps 748 mmHg 66%
    13:00 +14°C° 0 mm 5 mps 748 mmHg 63%
    14:00 +16°C° 0 mm 5 mps 748 mmHg 60%
    15:00 +14°C° 0.2 mm 4 mps 748 mmHg 70%
    16:00 +13°C° 0.2 mm 3 mps 747 mmHg 81%
    17:00 +12°C° 0.2 mm 3 mps 747 mmHg 91%
    18:00 +13°C° 0.8 mm 2 mps 747 mmHg 93%
    19:00 +13°C° 0.8 mm 2 mps 747 mmHg 95%
    20:00 +13°C° 0.8 mm 2 mps 747 mmHg 97%
    21:00 +13°C° 0.2 mm 2 mps 747 mmHg 97%
    22:00 +13°C° 0.2 mm 2 mps 747 mmHg 97%
    23:00 +14°C° 0.2 mm 2 mps 747 mmHg 98%

    28 May, Tuesday

    Time Temperature Precipitation Wind Pressure Humidity
    00:00 +13°C° 0.1 mm 2 mps 747 mmHg 98%
    01:00 +13°C° 0.1 mm 2 mps 747 mmHg 98%
    02:00 +13°C° 0.1 mm 2 mps 747 mmHg 98%
    03:00 +13°C° 0 mm 2 mps 747 mmHg 97%
    04:00 +13°C° 0 mm 2 mps 748 mmHg 97%
    05:00 +13°C° 0 mm 2 mps 748 mmHg 97%
    06:00 +13°C° 0 mm 3 mps 748 mmHg 92%
    07:00 +13°C° 0 mm 3 mps 749 mmHg 87%
    08:00 +14°C° 0 mm 3 mps 749 mmHg 82%
    09:00 +16°C° 0 mm 3 mps 749 mmHg 74%
    10:00 +18°C° 0 mm 3 mps 750 mmHg 66%
    11:00 +19°C° 0 mm 4 mps 750 mmHg 58%
    12:00 +20°C° 0 mm 3 mps 750 mmHg 56%
    13:00 +20°C° 0 mm 3 mps 750 mmHg 53%
    14:00 +21°C° 0 mm 3 mps 750 mmHg 51%
    15:00 +21°C° 0 mm 2 mps 750 mmHg 55%
    16:00 +21°C° 0 mm 1 mps 750 mmHg 60%
    17:00 +21°C° 0 mm 1 mps 750 mmHg 64%
    18:00 +19°C° 0.1 mm 1 mps 750 mmHg 69%
    19:00 +16°C° 0.1 mm 0 mps 750 mmHg 73%
    20:00 +15°C° 0.1 mm 0 mps 750 mmHg 78%
    21:00 +14°C° 0.2 mm 0 mps 750 mmHg 81%
    22:00 +14°C° 0.2 mm 0 mps 750 mmHg 84%
    23:00 +14°C° 0.2 mm 1 mps 750 mmHg 87%

    29 May, Wednesday

    Time Temperature Precipitation Wind Pressure Humidity
    00:00 +14°C° 0.3 mm 1 mps 750 mmHg 89%
    01:00 +14°C° 0.3 mm 1 mps 750 mmHg 91%
    02:00 +14°C° 0.3 mm 2 mps 750 mmHg 93%
    03:00 +14°C° 0.1 mm 2 mps 750 mmHg 94%
    04:00 +14°C° 0.1 mm 2 mps 749 mmHg 95%
    05:00 +14°C° 0.1 mm 2 mps 749 mmHg 96%
    06:00 +15°C° 4.9 mm 2 mps 749 mmHg 97%
    07:00 +15°C° 4.9 mm 2 mps 749 mmHg 97%
    08:00 +15°C° 4.9 mm 2 mps 748 mmHg 98%
    09:00 +16°C° 1 mm 3 mps 748 mmHg 97%
    10:00 +17°C° 1 mm 3 mps 747 mmHg 96%
    11:00 +18°C° 1 mm 3 mps 747 mmHg 95%
    12:00 +19°C° 1 mm 4 mps 747 mmHg 92%
    13:00 +21°C° 1 mm 5 mps 747 mmHg 90%
    14:00 +22°C° 1 mm 6 mps 747 mmHg 87%
    15:00 +21°C° 0.2 mm 5 mps 747 mmHg 85%
    16:00 +20°C° 0.2 mm 5 mps 747 mmHg 83%
    17:00 +20°C° 0.2 mm 4 mps 747 mmHg 82%
    18:00 +18°C° 0 mm 4 mps 747 mmHg 83%
    19:00 +17°C° 0 mm 3 mps 747 mmHg 85%
    20:00 +16°C° 0 mm 2 mps 748 mmHg 87%
    21:00 +15°C° 0 mm 2 mps 748 mmHg 90%
    22:00 +14°C° 0 mm 2 mps 749 mmHg 93%
    23:00 +13°C° 0 mm 2 mps 749 mmHg 95%
    Show more